Orbital Elements at Epoch 2459200.5 (2020-Dec-17.0) TDB
Reference: JPL 24 (heliocentric ecliptic J2000)
Element | Value | Uncertainty (1-sigma) | Units |
e | .1381577126065354 | 4.3814e-08 | |
a | 3.072980177578635 | 2.0302e-08 | au |
q | 2.648424265359146 | 1.3293e-07 | au |
i | 7.998711116125373 | 4.2942e-06 | deg |
node | 230.2595993979575 | 3.4382e-05 | deg |
peri | 94.9899015454302 | 3.7589e-05 | deg |
M | 150.910359551832 | 1.6661e-05 | deg |
tp | 2458375.688669646503 (2018-Sep-14.18866965) | 8.9137e-05 | TDB |
period | 1967.605668749825 5.39 | 1.9499e-05 5.339e-08 | d yr |
n | .1829634899500653 | 1.8132e-09 | deg/d |
Q | 3.497536089798124 | 2.3107e-08 | au |
|
| | Orbit Determination Parameters
Additional Information
|